Year,Month,Day,Hour,Minute,Value (Times are PST for temperature in C)
2013,01,20,00,02,3.40
2013,01,20,00,03,3.40
2013,01,20,00,04,3.40
2013,01,20,00,05,3.40
2013,01,20,00,06,3.40
2013,01,20,00,07,3.50
2013,01,20,00,08,3.40
2013,01,20,00,09,3.50
2013,01,20,00,10,3.50
2013,01,20,00,11,3.50
2013,01,20,00,12,3.50
2013,01,20,00,13,3.50
2013,01,20,00,14,3.50
2013,01,20,00,15,3.40
2013,01,20,00,16,3.40
2013,01,20,00,17,3.40
2013,01,20,00,18,3.40
2013,01,20,00,19,3.40
2013,01,20,00,20,3.40
2013,01,20,00,21,3.40
2013,01,20,00,22,3.40
2013,01,20,00,23,3.40
2013,01,20,00,24,3.40
2013,01,20,00,25,3.30
2013,01,20,00,26,3.30
2013,01,20,00,27,3.30
2013,01,20,00,28,3.30
2013,01,20,00,29,3.30
2013,01,20,00,30,3.30
2013,01,20,00,31,3.30
2013,01,20,00,32,3.20
2013,01,20,00,33,3.20
2013,01,20,00,34,3.20
2013,01,20,00,35,3.20
2013,01,20,00,36,3.20
2013,01,20,00,37,3.20
2013,01,20,00,38,3.20
2013,01,20,00,39,3.20
2013,01,20,00,40,3.20
2013,01,20,00,41,3.20
2013,01,20,00,42,3.20
2013,01,20,00,43,3.20
2013,01,20,00,44,3.20
2013,01,20,00,45,3.20
2013,01,20,00,46,3.20
2013,01,20,00,47,3.20
2013,01,20,00,48,3.20
2013,01,20,00,49,3.20
2013,01,20,00,50,3.20
2013,01,20,00,51,3.20
2013,01,20,00,52,3.20
2013,01,20,00,53,3.20
2013,01,20,00,54,3.20
2013,01,20,00,55,3.20
2013,01,20,00,56,3.20
2013,01,20,00,57,3.10
2013,01,20,00,58,3.10
2013,01,20,00,59,3.10
2013,01,20,01,00,3.10
2013,01,20,01,01,3.10
2013,01,20,01,02,3.10
2013,01,20,01,03,3.10
2013,01,20,01,04,3.10
2013,01,20,01,05,3.10
2013,01,20,01,06,3.10
2013,01,20,01,07,3.10
2013,01,20,01,08,3.10
2013,01,20,01,09,3.10
2013,01,20,01,10,3.10
2013,01,20,01,11,3.10
2013,01,20,01,12,3.10
2013,01,20,01,13,3.10
2013,01,20,01,14,3.10
2013,01,20,01,15,3.10
2013,01,20,01,16,3.10
2013,01,20,01,17,3.10
2013,01,20,01,18,3.10
2013,01,20,01,19,3.00
2013,01,20,01,20,3.00
2013,01,20,01,21,3.00
2013,01,20,01,22,3.00
2013,01,20,01,23,3.00
2013,01,20,01,24,2.90
2013,01,20,01,25,2.90
2013,01,20,01,26,2.90
2013,01,20,01,27,2.90
2013,01,20,01,28,2.90
2013,01,20,01,29,2.90
2013,01,20,01,30,2.90
2013,01,20,01,31,2.90
2013,01,20,01,33,2.90
2013,01,20,01,34,2.90
2013,01,20,01,35,2.90
2013,01,20,01,36,2.80
2013,01,20,01,38,2.80
2013,01,20,01,39,2.80
2013,01,20,01,40,2.80
2013,01,20,01,41,2.80
2013,01,20,01,42,2.80
2013,01,20,01,44,2.80
2013,01,20,01,45,2.80
2013,01,20,01,46,2.80
2013,01,20,01,48,2.80
2013,01,20,01,49,2.80
2013,01,20,01,50,2.70
2013,01,20,01,51,2.70
2013,01,20,01,53,2.70
2013,01,20,01,54,2.70
2013,01,20,01,55,2.70
2013,01,20,01,57,2.70
2013,01,20,01,58,2.70
2013,01,20,01,59,2.70
2013,01,20,02,00,2.70
2013,01,20,02,02,2.70
2013,01,20,02,03,2.70
2013,01,20,02,04,2.70
2013,01,20,02,05,2.70
2013,01,20,02,07,2.70
2013,01,20,02,08,2.70
2013,01,20,02,09,2.70
2013,01,20,02,11,2.70
2013,01,20,02,12,2.70
2013,01,20,02,13,2.80
2013,01,20,02,14,2.70
2013,01,20,02,16,2.80
2013,01,20,02,17,2.80
2013,01,20,02,18,2.80
2013,01,20,02,19,2.70
2013,01,20,02,20,2.70
2013,01,20,02,22,2.70
2013,01,20,02,23,2.70
2013,01,20,02,24,2.70
2013,01,20,02,25,2.70
2013,01,20,02,26,2.70
2013,01,20,02,27,2.70
2013,01,20,02,28,2.70
2013,01,20,02,29,2.70
2013,01,20,02,30,2.70
2013,01,20,02,31,2.70
2013,01,20,02,32,2.60
2013,01,20,02,33,2.60
2013,01,20,02,34,2.60
2013,01,20,02,35,2.60
2013,01,20,02,36,2.60
2013,01,20,02,37,2.60
2013,01,20,02,38,2.60
2013,01,20,02,39,2.60
2013,01,20,02,40,2.60
2013,01,20,02,42,2.60
2013,01,20,02,43,2.60
2013,01,20,02,44,2.60
2013,01,20,02,45,2.60
2013,01,20,02,47,2.60
2013,01,20,02,48,2.60
2013,01,20,02,49,2.60
2013,01,20,02,51,2.60
2013,01,20,02,52,2.60
2013,01,20,02,53,2.60
2013,01,20,02,54,2.60
2013,01,20,02,56,2.60
2013,01,20,02,57,2.60
2013,01,20,02,58,2.60
2013,01,20,02,59,2.60
2013,01,20,03,00,2.60
2013,01,20,03,01,2.60
2013,01,20,03,02,2.60
2013,01,20,03,03,2.60
2013,01,20,03,04,2.60
2013,01,20,03,06,2.60
2013,01,20,03,07,2.70
2013,01,20,03,08,2.70
2013,01,20,03,10,2.70
2013,01,20,03,11,2.70
2013,01,20,03,12,2.70
2013,01,20,03,14,2.70
2013,01,20,03,15,2.70
2013,01,20,03,16,2.70
2013,01,20,03,17,2.70
2013,01,20,03,18,2.70
2013,01,20,03,19,2.70
2013,01,20,03,20,2.70
2013,01,20,03,21,2.70
2013,01,20,03,22,2.70
2013,01,20,03,23,2.70
2013,01,20,03,24,2.70
2013,01,20,03,25,2.60
2013,01,20,03,27,2.60
2013,01,20,03,28,2.60
2013,01,20,03,29,2.60
2013,01,20,03,30,2.60
2013,01,20,03,32,2.60
2013,01,20,03,33,2.50
2013,01,20,03,34,2.50
2013,01,20,03,36,2.50
2013,01,20,03,37,2.50
2013,01,20,03,38,2.50
2013,01,20,03,39,2.50
2013,01,20,03,41,2.40
2013,01,20,03,42,2.40
2013,01,20,03,43,2.40
2013,01,20,03,44,2.40
2013,01,20,03,45,2.40
2013,01,20,03,47,2.40
2013,01,20,03,48,2.40
2013,01,20,03,49,2.30
2013,01,20,03,50,2.30
2013,01,20,03,52,2.30
2013,01,20,03,53,2.30
2013,01,20,03,54,2.30
2013,01,20,03,55,2.30
2013,01,20,03,57,2.30
2013,01,20,03,58,2.40
2013,01,20,03,59,2.40
2013,01,20,04,00,2.40
2013,01,20,04,02,2.40
2013,01,20,04,03,2.40
2013,01,20,04,04,2.40
2013,01,20,04,05,2.50
2013,01,20,04,07,2.50
2013,01,20,04,08,2.50
2013,01,20,04,09,2.50
2013,01,20,04,10,2.50
2013,01,20,04,12,2.50
2013,01,20,04,13,2.50
2013,01,20,04,14,2.50
2013,01,20,04,15,2.50
2013,01,20,04,17,2.50
2013,01,20,04,18,2.50
2013,01,20,04,19,2.50
2013,01,20,04,21,2.50
2013,01,20,04,22,2.50
2013,01,20,04,23,2.50
2013,01,20,04,24,2.60
2013,01,20,04,26,2.60
2013,01,20,04,27,2.60
2013,01,20,04,28,2.60
2013,01,20,04,29,2.60
2013,01,20,04,31,2.60
2013,01,20,04,32,2.60
2013,01,20,04,33,2.70
2013,01,20,04,34,2.60
2013,01,20,04,35,2.60
2013,01,20,04,37,2.60
2013,01,20,04,38,2.60
2013,01,20,04,39,2.60
2013,01,20,04,40,2.60
2013,01,20,04,42,2.60
2013,01,20,04,43,2.60
2013,01,20,04,44,2.60
2013,01,20,04,45,2.60
2013,01,20,04,47,2.60
2013,01,20,04,48,2.60
2013,01,20,04,49,2.60
2013,01,20,04,50,2.60
2013,01,20,04,52,2.60
2013,01,20,04,53,2.60
2013,01,20,04,54,2.60
2013,01,20,04,55,2.60
2013,01,20,04,56,2.60
2013,01,20,04,58,2.60
2013,01,20,04,59,2.60
2013,01,20,05,00,2.60
2013,01,20,05,01,2.60
2013,01,20,05,03,2.60
2013,01,20,05,04,2.60
2013,01,20,05,05,2.60
2013,01,20,05,06,2.60
2013,01,20,05,07,2.60
2013,01,20,05,08,2.70
2013,01,20,05,09,2.70
2013,01,20,05,11,2.60
2013,01,20,05,12,2.70
2013,01,20,05,13,2.70
2013,01,20,05,14,2.70
2013,01,20,05,15,2.60
2013,01,20,05,16,2.60
2013,01,20,05,18,2.60
2013,01,20,05,19,2.60
2013,01,20,05,20,2.60
2013,01,20,05,21,2.50
2013,01,20,05,23,2.40
2013,01,20,05,24,2.40
2013,01,20,05,25,2.40
2013,01,20,05,26,2.40
2013,01,20,05,28,2.30
2013,01,20,05,29,2.30
2013,01,20,05,30,2.30
2013,01,20,05,31,2.30
2013,01,20,05,33,2.30
2013,01,20,05,34,2.30
2013,01,20,05,35,2.30
2013,01,20,05,36,2.30
2013,01,20,05,37,2.30
2013,01,20,05,38,2.30
2013,01,20,05,39,2.30
2013,01,20,05,40,2.30
2013,01,20,05,41,2.30
2013,01,20,05,42,2.30
2013,01,20,05,43,2.30
2013,01,20,05,44,2.30
2013,01,20,05,45,2.30
2013,01,20,05,46,2.30
2013,01,20,05,47,2.30
2013,01,20,05,48,2.30
2013,01,20,05,49,2.30
2013,01,20,05,50,2.30
2013,01,20,05,51,2.30
2013,01,20,05,53,2.30
2013,01,20,05,54,2.30
2013,01,20,05,55,2.30
2013,01,20,05,56,2.30
2013,01,20,05,58,2.30
2013,01,20,05,59,2.30
2013,01,20,06,00,2.30
2013,01,20,06,01,2.30
2013,01,20,06,03,2.30
2013,01,20,06,04,2.30
2013,01,20,06,05,2.30
2013,01,20,06,06,2.30
2013,01,20,06,08,2.30
2013,01,20,06,09,2.40
2013,01,20,06,10,2.40
2013,01,20,06,11,2.40
2013,01,20,06,13,2.40
2013,01,20,06,14,2.40
2013,01,20,06,15,2.50
2013,01,20,06,16,2.50
2013,01,20,06,18,2.60
2013,01,20,06,19,2.60
2013,01,20,06,20,2.60
2013,01,20,06,21,2.60
2013,01,20,06,23,2.60
2013,01,20,06,24,2.60
2013,01,20,06,25,2.60
2013,01,20,06,26,2.60
2013,01,20,06,27,2.60
2013,01,20,06,29,2.60
2013,01,20,06,30,2.60
2013,01,20,06,31,2.60
2013,01,20,06,32,2.60
2013,01,20,06,33,2.60
2013,01,20,06,34,2.50
2013,01,20,06,35,2.50
2013,01,20,06,36,2.40
2013,01,20,06,37,2.40
2013,01,20,06,38,2.40
2013,01,20,06,39,2.40
2013,01,20,06,40,2.40
2013,01,20,06,41,2.30
2013,01,20,06,43,2.30
2013,01,20,06,44,2.30
2013,01,20,06,45,2.20
2013,01,20,06,46,2.20
2013,01,20,06,48,2.20
2013,01,20,06,49,2.20
2013,01,20,06,50,2.20
2013,01,20,06,51,2.20
2013,01,20,06,52,2.20
2013,01,20,06,54,2.20
2013,01,20,06,55,2.20
2013,01,20,06,56,2.20
2013,01,20,06,57,2.20
2013,01,20,06,59,2.20
2013,01,20,07,00,2.20
2013,01,20,07,01,2.20
2013,01,20,07,02,2.20
2013,01,20,07,03,2.20
2013,01,20,07,04,2.20
2013,01,20,07,05,2.20
2013,01,20,07,06,2.20
2013,01,20,07,07,2.20
2013,01,20,07,09,2.20
2013,01,20,07,10,2.20
2013,01,20,07,11,2.10
2013,01,20,07,12,2.10
2013,01,20,07,13,2.10
2013,01,20,07,15,2.10
2013,01,20,07,16,2.10
2013,01,20,07,17,2.10
2013,01,20,07,18,2.10
2013,01,20,07,19,2.00
2013,01,20,07,20,2.00
2013,01,20,07,21,2.00
2013,01,20,07,22,2.00
2013,01,20,07,23,2.00
2013,01,20,07,25,2.00
2013,01,20,07,26,2.00
2013,01,20,07,27,2.00
2013,01,20,07,29,2.00
2013,01,20,07,30,2.00
2013,01,20,07,31,2.00
2013,01,20,07,32,2.00
2013,01,20,07,34,2.00
2013,01,20,07,35,2.10
2013,01,20,07,36,2.10
2013,01,20,07,37,2.10
2013,01,20,07,39,2.10
2013,01,20,07,40,2.10
2013,01,20,07,41,2.10
2013,01,20,07,42,2.20
2013,01,20,07,44,2.20
2013,01,20,07,45,2.20
2013,01,20,07,46,2.20
2013,01,20,07,47,2.30
2013,01,20,07,49,2.30
2013,01,20,07,50,2.30
2013,01,20,07,51,2.30
2013,01,20,07,52,2.30
2013,01,20,07,54,2.30
2013,01,20,07,55,2.30
2013,01,20,07,56,2.30
2013,01,20,07,57,2.30
2013,01,20,07,59,2.30
2013,01,20,08,00,2.30
2013,01,20,08,01,2.30
2013,01,20,08,03,2.30
2013,01,20,08,04,2.30
2013,01,20,08,05,2.30
2013,01,20,08,06,2.30
2013,01,20,08,08,2.30
2013,01,20,08,09,2.20
2013,01,20,08,10,2.20
2013,01,20,08,11,2.20
2013,01,20,08,12,2.20
2013,01,20,08,13,2.20
2013,01,20,08,14,2.20
2013,01,20,08,15,2.20
2013,01,20,08,16,2.20
2013,01,20,08,18,2.20
2013,01,20,08,19,2.20
2013,01,20,08,20,2.20
2013,01,20,08,21,2.20
2013,01,20,08,23,2.20
2013,01,20,08,24,2.20
2013,01,20,08,25,2.20
2013,01,20,08,26,2.20
2013,01,20,08,28,2.20
2013,01,20,08,29,2.20
2013,01,20,08,30,2.20
2013,01,20,08,31,2.30
2013,01,20,08,33,2.20
2013,01,20,08,34,2.20
2013,01,20,08,35,2.20
2013,01,20,08,37,2.20
2013,01,20,08,38,2.20
2013,01,20,08,39,2.20
2013,01,20,08,40,2.20
2013,01,20,08,42,2.20
2013,01,20,08,43,2.20
2013,01,20,08,44,2.20
2013,01,20,08,46,2.20
2013,01,20,08,47,2.10
2013,01,20,08,48,2.10
2013,01,20,08,49,2.10
2013,01,20,08,51,2.10
2013,01,20,08,52,2.00
2013,01,20,08,53,1.90
2013,01,20,08,54,1.90
2013,01,20,08,56,1.90
2013,01,20,08,57,1.90
2013,01,20,08,58,1.90
2013,01,20,08,59,2.00
2013,01,20,09,00,2.00
2013,01,20,09,01,2.00
2013,01,20,09,02,2.00
2013,01,20,09,03,2.00
2013,01,20,09,05,2.00
2013,01,20,09,06,2.00
2013,01,20,09,07,2.00
2013,01,20,09,08,2.00
2013,01,20,09,09,2.00
2013,01,20,09,11,2.00
2013,01,20,09,12,2.00
2013,01,20,09,13,1.90
2013,01,20,09,15,1.90
2013,01,20,09,16,1.90
2013,01,20,09,17,1.90
2013,01,20,09,18,1.90
2013,01,20,09,19,1.90
2013,01,20,09,21,1.90
2013,01,20,09,22,2.00
2013,01,20,09,23,2.00
2013,01,20,09,24,2.00
2013,01,20,09,25,1.90
2013,01,20,09,27,1.90
2013,01,20,09,28,1.90
2013,01,20,09,29,1.90
2013,01,20,09,30,1.90
2013,01,20,09,32,1.90
2013,01,20,09,33,1.90
2013,01,20,09,34,1.90
2013,01,20,09,36,1.90
2013,01,20,09,37,1.90
2013,01,20,09,38,1.90
2013,01,20,09,39,1.90
2013,01,20,09,40,1.90
2013,01,20,09,42,1.90
2013,01,20,09,43,1.90
2013,01,20,09,44,1.90
2013,01,20,09,45,1.90
2013,01,20,09,47,1.90
2013,01,20,09,48,2.00
2013,01,20,09,49,2.00
2013,01,20,09,50,2.10
2013,01,20,09,52,2.10
2013,01,20,09,53,2.10
2013,01,20,09,54,2.10
2013,01,20,09,55,2.20
2013,01,20,09,57,2.20
2013,01,20,09,58,2.20
2013,01,20,09,59,2.20
2013,01,20,10,00,2.30
2013,01,20,10,01,2.30
2013,01,20,10,02,2.30
2013,01,20,10,03,2.30
2013,01,20,10,04,2.30
2013,01,20,10,06,2.30
2013,01,20,10,07,2.40
2013,01,20,10,08,2.40
2013,01,20,10,09,2.40
2013,01,20,10,11,2.40
2013,01,20,10,12,2.40
2013,01,20,10,13,2.40
2013,01,20,10,14,2.40
2013,01,20,10,16,2.50
2013,01,20,10,17,2.60
2013,01,20,10,18,2.60
2013,01,20,10,19,2.60
2013,01,20,10,21,2.60
2013,01,20,10,22,2.60
2013,01,20,10,23,2.60
2013,01,20,10,24,2.60
2013,01,20,10,25,2.60
2013,01,20,10,26,2.60
2013,01,20,10,27,2.50
2013,01,20,10,28,2.50
2013,01,20,10,30,2.50
2013,01,20,10,31,2.60
2013,01,20,10,32,2.60
2013,01,20,10,33,2.60
2013,01,20,10,35,2.60
2013,01,20,10,36,2.60
2013,01,20,10,37,2.60
2013,01,20,10,38,2.70
2013,01,20,10,40,2.70
2013,01,20,10,41,2.70
2013,01,20,10,42,2.60
2013,01,20,10,43,2.60
2013,01,20,10,44,2.60
2013,01,20,10,46,2.60
2013,01,20,10,47,2.70
2013,01,20,10,48,2.60
2013,01,20,10,49,2.60
2013,01,20,10,51,2.60
2013,01,20,10,52,2.70
2013,01,20,10,53,2.70
2013,01,20,10,54,2.60
2013,01,20,10,55,2.70
2013,01,20,10,57,2.60
2013,01,20,10,58,2.60
2013,01,20,10,59,2.60
2013,01,20,11,00,2.60
2013,01,20,11,02,2.60
2013,01,20,11,03,2.60
2013,01,20,11,04,2.60
2013,01,20,11,06,2.50
2013,01,20,11,07,2.60
2013,01,20,11,08,2.60
2013,01,20,11,09,2.60
2013,01,20,11,11,2.70
2013,01,20,11,12,2.70
2013,01,20,11,13,2.70
2013,01,20,11,14,2.70
2013,01,20,11,16,2.70
2013,01,20,11,17,2.70
2013,01,20,11,18,2.70
2013,01,20,11,20,2.70
2013,01,20,11,21,2.80
2013,01,20,11,22,2.80
2013,01,20,11,23,2.80
2013,01,20,11,24,2.80
2013,01,20,11,25,2.80
2013,01,20,11,26,2.90
2013,01,20,11,27,2.90
2013,01,20,11,28,2.90
2013,01,20,11,30,2.90
2013,01,20,11,31,2.80
2013,01,20,11,32,2.90
2013,01,20,11,33,2.90
2013,01,20,11,34,2.90
2013,01,20,11,35,3.00
2013,01,20,11,36,3.00
2013,01,20,11,37,3.10
2013,01,20,11,39,3.10
2013,01,20,11,40,3.20
2013,01,20,11,41,3.20
2013,01,20,11,42,3.20
2013,01,20,11,44,3.20
2013,01,20,11,45,3.20
2013,01,20,11,46,3.20
2013,01,20,11,47,3.20
2013,01,20,11,49,3.20
2013,01,20,11,50,3.30
2013,01,20,11,51,3.30
2013,01,20,11,52,3.30
2013,01,20,11,54,3.30
2013,01,20,11,55,3.30
2013,01,20,11,56,3.30
2013,01,20,11,58,3.30
2013,01,20,11,59,3.30
2013,01,20,12,00,3.30
2013,01,20,12,01,3.30
2013,01,20,12,03,3.40
2013,01,20,12,04,3.40
2013,01,20,12,05,3.30
2013,01,20,12,06,3.30
2013,01,20,12,08,3.30
2013,01,20,12,09,3.20
2013,01,20,12,10,3.20
2013,01,20,12,11,3.20
2013,01,20,12,12,3.30
2013,01,20,12,13,3.30
2013,01,20,12,14,3.30
2013,01,20,12,15,3.30
2013,01,20,12,16,3.40
2013,01,20,12,18,3.50
2013,01,20,12,19,3.60
2013,01,20,12,20,3.60
2013,01,20,12,21,3.70
2013,01,20,12,22,3.70
2013,01,20,12,23,3.70
2013,01,20,12,25,3.70
2013,01,20,12,26,3.80
2013,01,20,12,27,3.80
2013,01,20,12,28,3.80
2013,01,20,12,29,3.80
2013,01,20,12,30,3.80
2013,01,20,12,31,3.90
2013,01,20,12,33,3.90
2013,01,20,12,34,4.00
2013,01,20,12,35,4.10
2013,01,20,12,37,4.10
2013,01,20,12,38,4.10
2013,01,20,12,39,4.10
2013,01,20,12,40,4.20
2013,01,20,12,41,4.20
2013,01,20,12,42,4.20
2013,01,20,12,43,4.20
2013,01,20,12,44,4.20
2013,01,20,12,45,4.20
2013,01,20,12,47,4.20
2013,01,20,12,48,4.20
2013,01,20,12,49,4.20
2013,01,20,12,50,4.20
2013,01,20,12,52,4.10
2013,01,20,12,53,4.10
2013,01,20,12,54,4.20
2013,01,20,12,55,4.20
2013,01,20,12,56,4.20
2013,01,20,12,57,4.30
2013,01,20,12,58,4.30
2013,01,20,12,59,4.30
2013,01,20,13,00,4.30
2013,01,20,13,02,4.30
2013,01,20,13,03,4.40
2013,01,20,13,04,4.40
2013,01,20,13,06,4.50
2013,01,20,13,07,4.60
2013,01,20,13,08,4.60
2013,01,20,13,09,4.60
2013,01,20,13,11,4.70
2013,01,20,13,12,4.70
2013,01,20,13,13,4.70
2013,01,20,13,14,4.70
2013,01,20,13,15,4.80
2013,01,20,13,16,4.80
2013,01,20,13,17,4.80
2013,01,20,13,18,4.90
2013,01,20,13,19,4.90
2013,01,20,13,21,5.00
2013,01,20,13,22,5.10
2013,01,20,13,23,5.10
2013,01,20,13,24,5.20
2013,01,20,13,26,5.20
2013,01,20,13,27,5.30
2013,01,20,13,28,5.30
2013,01,20,13,29,5.30
2013,01,20,13,31,5.30
2013,01,20,13,32,5.30
2013,01,20,13,33,5.30
2013,01,20,13,35,5.30
2013,01,20,13,36,5.30
2013,01,20,13,37,5.30
2013,01,20,13,38,5.30
2013,01,20,13,40,5.30
2013,01,20,13,41,5.30
2013,01,20,13,42,5.40
2013,01,20,13,43,5.40
2013,01,20,13,45,5.50
2013,01,20,13,46,5.60
2013,01,20,13,47,5.60
2013,01,20,13,48,5.60
2013,01,20,13,49,5.70
2013,01,20,13,51,5.70
2013,01,20,13,52,5.70
2013,01,20,13,53,5.70
2013,01,20,13,55,5.70
2013,01,20,13,56,5.80
2013,01,20,13,57,5.80
2013,01,20,13,59,5.80
2013,01,20,14,01,5.70
2013,01,20,14,02,5.80
2013,01,20,14,03,5.70
2013,01,20,14,05,5.80
2013,01,20,14,06,5.80
2013,01,20,14,07,5.80
2013,01,20,14,08,5.80
2013,01,20,14,09,5.90
2013,01,20,14,11,5.90
2013,01,20,14,12,5.90
2013,01,20,14,13,5.90
2013,01,20,14,14,5.90
2013,01,20,14,16,5.90
2013,01,20,14,17,5.90
2013,01,20,14,18,5.90
2013,01,20,14,19,5.90
2013,01,20,14,21,5.80
2013,01,20,14,22,5.80
2013,01,20,14,23,5.80
2013,01,20,14,24,5.70
2013,01,20,14,26,5.80
2013,01,20,14,27,5.80
2013,01,20,14,28,5.80
2013,01,20,14,29,5.80
2013,01,20,14,31,5.80
2013,01,20,14,32,5.90
2013,01,20,14,33,5.90
2013,01,20,14,34,5.90
2013,01,20,14,36,5.90
2013,01,20,14,37,5.90
2013,01,20,14,38,5.90
2013,01,20,14,40,5.90
2013,01,20,14,41,5.90
2013,01,20,14,42,5.90
2013,01,20,14,43,5.90
2013,01,20,14,45,5.90
2013,01,20,14,46,5.90
2013,01,20,14,47,5.80
2013,01,20,14,48,5.80
2013,01,20,14,49,5.80
2013,01,20,14,51,5.80
2013,01,20,14,52,5.80
2013,01,20,14,53,5.80
2013,01,20,14,54,5.80
2013,01,20,14,56,5.90
2013,01,20,14,57,5.90
2013,01,20,14,58,5.90
2013,01,20,14,59,5.90
2013,01,20,15,00,6.00
2013,01,20,15,01,6.10
2013,01,20,15,02,6.10
2013,01,20,15,04,6.20
2013,01,20,15,05,6.20
2013,01,20,15,06,6.20
2013,01,20,15,07,6.20
2013,01,20,15,09,6.20
2013,01,20,15,10,6.20
2013,01,20,15,11,6.20
2013,01,20,15,12,6.20
2013,01,20,15,14,6.20
2013,01,20,15,15,6.20
2013,01,20,15,16,6.20
2013,01,20,15,17,6.20
2013,01,20,15,18,6.20
2013,01,20,15,19,6.20
2013,01,20,15,21,6.20
2013,01,20,15,22,6.20
2013,01,20,15,23,6.10
2013,01,20,15,25,6.10
2013,01,20,15,26,6.10
2013,01,20,15,27,6.10
2013,01,20,15,28,6.00
2013,01,20,15,29,6.00
2013,01,20,15,31,6.00
2013,01,20,15,32,6.00
2013,01,20,15,33,5.90
2013,01,20,15,34,5.90
2013,01,20,15,36,5.90
2013,01,20,15,37,5.80
2013,01,20,15,38,5.80
2013,01,20,15,40,5.80
2013,01,20,15,41,5.80
2013,01,20,15,42,5.80
2013,01,20,15,43,5.80
2013,01,20,15,45,5.80
2013,01,20,15,46,5.80
2013,01,20,15,47,5.80
2013,01,20,15,48,5.80
2013,01,20,15,49,5.80
2013,01,20,15,51,5.90
2013,01,20,15,52,5.90
2013,01,20,15,53,5.80
2013,01,20,15,55,5.90
2013,01,20,15,56,5.90
2013,01,20,15,57,5.90
2013,01,20,15,58,5.90
2013,01,20,15,59,5.90
2013,01,20,16,00,5.90
2013,01,20,16,01,5.90
2013,01,20,16,02,5.90
2013,01,20,16,03,5.90
2013,01,20,16,05,5.90
2013,01,20,16,06,5.80
2013,01,20,16,07,5.80
2013,01,20,16,08,5.80
2013,01,20,16,10,5.80
2013,01,20,16,11,5.80
2013,01,20,16,12,5.80
2013,01,20,16,13,5.70
2013,01,20,16,15,5.70
2013,01,20,16,16,5.70
2013,01,20,16,17,5.80
2013,01,20,16,18,5.70
2013,01,20,16,20,5.70
2013,01,20,16,21,5.70
2013,01,20,16,22,5.70
2013,01,20,16,23,5.70
2013,01,20,16,25,5.70
2013,01,20,16,26,5.60
2013,01,20,16,27,5.60
2013,01,20,16,28,5.50
2013,01,20,16,30,5.40
2013,01,20,16,31,5.40
2013,01,20,16,32,5.40
2013,01,20,16,33,5.30
2013,01,20,16,35,5.30
2013,01,20,16,36,5.30
2013,01,20,16,37,5.30
2013,01,20,16,38,5.30
2013,01,20,16,40,5.30
2013,01,20,16,41,5.30
2013,01,20,16,42,5.30
2013,01,20,16,43,5.30
2013,01,20,16,45,5.20
2013,01,20,16,46,5.20
2013,01,20,16,47,5.20
2013,01,20,16,48,5.10
2013,01,20,16,50,5.10
2013,01,20,16,51,5.10
2013,01,20,16,52,5.00
2013,01,20,16,53,5.00
2013,01,20,16,54,4.90
2013,01,20,16,55,4.90
2013,01,20,16,56,4.90
2013,01,20,16,57,4.80
2013,01,20,16,59,4.80
2013,01,20,17,00,4.80
2013,01,20,17,01,4.80
2013,01,20,17,02,4.70
2013,01,20,17,04,4.70
2013,01,20,17,05,4.70
2013,01,20,17,06,4.70
2013,01,20,17,07,4.70
2013,01,20,17,09,4.70
2013,01,20,17,10,4.60
2013,01,20,17,11,4.60
2013,01,20,17,13,4.60
2013,01,20,17,14,4.50
2013,01,20,17,15,4.50
2013,01,20,17,17,4.50
2013,01,20,17,18,4.40
2013,01,20,17,19,4.40
2013,01,20,17,20,4.40
2013,01,20,17,22,4.40
2013,01,20,17,23,4.40
2013,01,20,17,24,4.40
2013,01,20,17,25,4.40
2013,01,20,17,27,4.40
2013,01,20,17,28,4.30
2013,01,20,17,29,4.30
2013,01,20,17,30,4.20
2013,01,20,17,32,4.20
2013,01,20,17,33,4.20
2013,01,20,17,34,4.20
2013,01,20,17,35,4.20
2013,01,20,17,37,4.20
2013,01,20,17,38,4.10
2013,01,20,17,39,4.10
2013,01,20,17,40,4.10
2013,01,20,17,42,4.10
2013,01,20,17,43,4.00
2013,01,20,17,44,4.00
2013,01,20,17,46,3.90
2013,01,20,17,47,3.90
2013,01,20,17,48,3.90
2013,01,20,17,49,3.90
2013,01,20,17,51,3.90
2013,01,20,17,52,3.80
2013,01,20,17,53,3.80
2013,01,20,17,55,3.80
2013,01,20,17,56,3.80
2013,01,20,17,57,3.80
2013,01,20,17,58,3.80
2013,01,20,17,59,3.80
2013,01,20,18,01,3.80
2013,01,20,18,02,3.80
2013,01,20,18,03,3.70
2013,01,20,18,04,3.70
2013,01,20,18,06,3.70
2013,01,20,18,07,3.70
2013,01,20,18,08,3.70
2013,01,20,18,09,3.70
2013,01,20,18,11,3.70
2013,01,20,18,12,3.60
2013,01,20,18,13,3.60
2013,01,20,18,14,3.60
2013,01,20,18,16,3.60
2013,01,20,18,17,3.60
2013,01,20,18,18,3.60
2013,01,20,18,20,3.60
2013,01,20,18,21,3.60
2013,01,20,18,22,3.50
2013,01,20,18,23,3.50
2013,01,20,18,25,3.50
2013,01,20,18,26,3.50
2013,01,20,18,27,3.50
2013,01,20,18,28,3.50
2013,01,20,18,30,3.50
2013,01,20,18,31,3.50
2013,01,20,18,32,3.50
2013,01,20,18,33,3.50
2013,01,20,18,35,3.50
2013,01,20,18,36,3.50
2013,01,20,18,37,3.50
2013,01,20,18,39,3.50
2013,01,20,18,40,3.50
2013,01,20,18,41,3.50
2013,01,20,18,42,3.50
2013,01,20,18,43,3.50
2013,01,20,18,45,3.40
2013,01,20,18,46,3.40
2013,01,20,18,47,3.40
2013,01,20,18,48,3.40
2013,01,20,18,49,3.40
2013,01,20,18,51,3.40
2013,01,20,18,52,3.40
2013,01,20,18,53,3.40
2013,01,20,18,55,3.40
2013,01,20,18,56,3.40
2013,01,20,18,57,3.40
2013,01,20,18,58,3.40
2013,01,20,18,59,3.40
2013,01,20,19,01,3.40
2013,01,20,19,02,3.30
2013,01,20,19,03,3.30
2013,01,20,19,04,3.40
2013,01,20,19,06,3.40
2013,01,20,19,07,3.40
2013,01,20,19,08,3.40
2013,01,20,19,09,3.40
2013,01,20,19,11,3.40
2013,01,20,19,12,3.40
2013,01,20,19,13,3.40
2013,01,20,19,15,3.40
2013,01,20,19,16,3.40
2013,01,20,19,17,3.40
2013,01,20,19,18,3.40
2013,01,20,19,20,3.40
2013,01,20,19,21,3.40
2013,01,20,19,22,3.40
2013,01,20,19,23,3.40
2013,01,20,19,24,3.40
2013,01,20,19,25,3.30
2013,01,20,19,26,3.30
2013,01,20,19,27,3.30
2013,01,20,19,29,3.30
2013,01,20,19,30,3.30
2013,01,20,19,31,3.30
2013,01,20,19,32,3.30
2013,01,20,19,34,3.30
2013,01,20,19,35,3.30
2013,01,20,19,36,3.30
2013,01,20,19,37,3.30
2013,01,20,19,38,3.30
2013,01,20,19,39,3.30
2013,01,20,19,40,3.30
2013,01,20,19,41,3.30
2013,01,20,19,43,3.30
2013,01,20,19,44,3.30
2013,01,20,19,45,3.30
2013,01,20,19,46,3.30
2013,01,20,19,48,3.30
2013,01,20,19,49,3.30
2013,01,20,19,50,3.20
2013,01,20,19,51,3.20
2013,01,20,19,53,3.20
2013,01,20,19,54,3.20
2013,01,20,19,55,3.20
2013,01,20,19,56,3.20
2013,01,20,19,58,3.20
2013,01,20,19,59,3.20
2013,01,20,20,00,3.20
2013,01,20,20,01,3.20
2013,01,20,20,03,3.20
2013,01,20,20,04,3.20
2013,01,20,20,05,3.20
2013,01,20,20,06,3.20
2013,01,20,20,08,3.20
2013,01,20,20,09,3.20
2013,01,20,20,10,3.20
2013,01,20,20,11,3.20
2013,01,20,20,13,3.20
2013,01,20,20,14,3.20
2013,01,20,20,15,3.20
2013,01,20,20,16,3.20
2013,01,20,20,18,3.20
2013,01,20,20,19,3.20
2013,01,20,20,20,3.20
2013,01,20,20,21,3.20
2013,01,20,20,23,3.20
2013,01,20,20,24,3.20
2013,01,20,20,25,3.20
2013,01,20,20,26,3.20
2013,01,20,20,28,3.20
2013,01,20,20,29,3.20
2013,01,20,20,30,3.20
2013,01,20,20,31,3.20
2013,01,20,20,33,3.20
2013,01,20,20,34,3.20
2013,01,20,20,35,3.20
2013,01,20,20,37,3.20
2013,01,20,20,38,3.20
2013,01,20,20,39,3.20
2013,01,20,20,40,3.20
2013,01,20,20,42,3.20
2013,01,20,20,43,3.10
2013,01,20,20,44,3.10
2013,01,20,20,45,3.10
2013,01,20,20,46,3.10
2013,01,20,20,47,3.10
2013,01,20,20,48,3.10
2013,01,20,20,49,3.10
2013,01,20,20,50,3.10
2013,01,20,20,51,3.10
2013,01,20,20,52,3.10
2013,01,20,20,53,3.10
2013,01,20,20,54,3.10
2013,01,20,20,55,3.10
2013,01,20,20,57,3.10
2013,01,20,20,58,3.10
2013,01,20,20,59,3.10
2013,01,20,21,00,3.10
2013,01,20,21,02,3.10
2013,01,20,21,03,3.10
2013,01,20,21,04,3.10
2013,01,20,21,05,3.10
2013,01,20,21,06,3.10
2013,01,20,21,07,3.10
2013,01,20,21,08,3.10
2013,01,20,21,09,3.10
2013,01,20,21,11,3.10
2013,01,20,21,12,3.10
2013,01,20,21,13,3.10
2013,01,20,21,14,3.10
2013,01,20,21,15,3.10
2013,01,20,21,16,3.10
2013,01,20,21,17,3.10
2013,01,20,21,18,3.10
2013,01,20,21,19,3.00
2013,01,20,21,20,3.00
2013,01,20,21,21,3.10
2013,01,20,21,22,3.10
2013,01,20,21,23,3.10
2013,01,20,21,24,3.10
2013,01,20,21,26,3.10
2013,01,20,21,27,3.10
2013,01,20,21,28,3.10
2013,01,20,21,29,3.10
2013,01,20,21,31,3.10
2013,01,20,21,32,3.00
2013,01,20,21,33,3.00
2013,01,20,21,34,2.90
2013,01,20,21,35,2.90
2013,01,20,21,36,2.90
2013,01,20,21,37,2.90
2013,01,20,21,38,2.90
2013,01,20,21,40,2.90